20021115,115
20030217,105
20030515,95
20030815,110
20031117,105
20040216,110
20040517,110
20040816,105
20041115,105
20050215,105
20050516,100
20050815,95
20051115,95
20060215,90
20060515,90
20060815,95
20061115,95
20070215,100
20070515,100
20070815,220
20071115,220
20080215,220
20080515,220
20080815,220
20081117,220
20090216,220
20090515,220
20090817,220
20091116,220
20100215,220
20100517,220
20100816,220
20101115,220
20110215,220
20110516,220
20110815,220
20111115,150
20120215,150
20120515,150
20120815,100
20121115,100
20130215,100
20130515,100
20130815,100
20131115,100
20140217,100
20140515,100
20140815,100
20141117,100
20150216,100
20150515,100
20150817,100
20151116,100
20160215,100
20160516,100
20160815,100
20161115,100
20170215,100
20170515,100
20170815,80
20171115,80
20180215,80
20180515,80
20180815,80
20181115,80
20190215,80
20190515,50
20190815,50
20191115,50
20200217,50
20200515,50
20200817,30
20201116,30
20210215,30
20210517,30
20210816,30
20211115,30
20220215,30
20220516,30
20220815,30
20221115,30
20230215,20
20230515,20
20230815,20
20231115,20
20240215,20
20240515,20
